Hourly Data Report for September 24, 2020

BRIER ISLAND
NOVA SCOTIA
Current Station Operator: ECCC - MSC

44°17'09.000" N
66°20'48.000" W
15.80 m
8200604
71988
WVU

Download Data

Hourly Data (September 2020)
Hourly Data Report for September 24, 2020
TIME Temp Definition
°C
Dew Point Definition
°C
Rel Hum Definition
%
Wind Dir Definition
10's deg

Wind Spd Definition
km/h
Visibility Definition
km
Stn Press Definition
kPa
Hmdx Definition


Wind Chill Definition


Weather Definition


00:00 13.3 11.1 86 24 18   100.29     LegendNANA
01:00 13.1 11.5 90 24 21   100.35     LegendNANA
02:00 12.6 11.8 95 24 17   100.40     LegendNANA
03:00 12.9 11.9 94 24 18   100.41     LegendNANA
04:00 12.6 12.0 96 25 20   100.46     LegendNANA
05:00 12.6 11.9 96 23 11   100.50     LegendNANA
06:00 12.3 11.9 97 24 14   100.57     LegendNANA
07:00 12.7 12.2 97 23 9   100.65     LegendNANA
08:00 13.1 12.2 94 25 11   100.73     LegendNANA
09:00 14.0 12.5 91 26 16   100.81     LegendNANA
10:00 14.7 12.8 89 25 16   100.85     LegendNANA
11:00 14.8 12.8 88 24 14   100.87     LegendNANA
12:00 15.0 12.6 85 24 12   100.91     LegendNANA
13:00 16.3 11.5 73 23 13   100.89     LegendNANA
14:00 16.8 11.6 71 23 13   100.90     LegendNANA
15:00 16.7 11.5 71 22 16   100.89     LegendNANA
16:00 16.1 11.2 73 22 19   100.90     LegendNANA
17:00 15.3 11.1 76 22 15   100.90     LegendNANA
18:00 14.7 11.0 79 21 18   100.98     LegendNANA
19:00 14.6 11.5 82 21 18   101.02     LegendNANA
20:00 13.8 12.7 93 22 15   101.09     LegendNANA
21:00 13.9 12.8 93 22 17   101.14     LegendNANA
22:00 13.4 12.6 95 22 15   101.17     LegendNANA
23:00 13.1 12.6 97 22 16   101.22     LegendNANA

Notes on Data Quality.

Legend

  • E = Estimated
  • M = Missing
  • NA = Not Available*
  • [empty] = Indicates an unobserved value
Date modified: